{"data":{"norad_id":47630,"intl_designator":"2021-012L","name":"STARLINK-1983","alt_names":[],"object_type":"PAYLOAD","status":"ACTIVE","operator":null,"country":"US","launch_date":"2021-02-16","launch_site_code":"AFETR","launch_vehicle":null,"mission":null,"orbit_class":"UNKNOWN","rcs_meters":null,"size_class":null,"mass_kg":null,"dimensions":null,"purposes":["comms"],"wikipedia_slug":null,"has_3d_model":false,"image_url":null,"decayed_at":null,"tle_current":{"epoch":"2026-05-25T04:05:01.061088Z","epoch_age_seconds":54303,"freshness":"FRESH","line1":"1 47630U 21012L   26145.17015117  .00006460  00000+0  21949-3 0  9990","line2":"2 47630  53.1594  53.8598 0001099  88.2398 271.8729 15.31738868291990","mean_motion":15.31738868,"eccentricity":0.0001099,"inclination_deg":53.1594,"raan_deg":53.8598,"arg_perigee_deg":88.2398,"mean_anomaly_deg":271.8729,"bstar":0.00021949,"rev_number":29199,"period_min":94.010802368697,"perigee_km":469.87145534157,"apogee_km":471.37681303887,"semimajor_km":6848.7611341902,"source":"CELESTRAK","updated_at":"2026-05-25T13:38:16.560541Z"}}}